Weather History for KOEB - November, 2012

Change the Weather History Date:

Sunday, November 4, 2012

  Actual Average (KJYM) Record (KJYM)
Temperature  
Mean Temperature 32 °F -  
Max Temperature 38 °F 51 °F 76 °F (1987)
Min Temperature 25 °F 34 °F 16 °F (1951)
Degree Days  
Heating Degree Days 34    
Moisture  
Dew Point 27 °F    
Average Humidity 80    
Maximum Humidity 96    
Minimum Humidity 60    
Precipitation  
Precipitation 0.00 in - - ()
Sea Level Pressure  
Sea Level Pressure 30.17 in    
Wind  
Wind Speed 1 mph (NNE)    
Max Wind Speed 7 mph    
Max Gust Speed -    
Visibility 9 miles    
Events      
Averages and records for this station are not official NWS values.
T = Trace of Precipitation, MM = Missing Value Source: NWS Daily Summary

Daily Weather History Graph

Daily Weather History Graph

Search for Another Location

Airport or City:

Trip Planner

Search our weather history database for the weather conditions in past years. The results will help you decide how hot, cold, wet, or windy it might be!

Date:

Astronomy

Nov. 04, 2012 Rise Set
Actual Time 7:16 AM EST 5:30 PM EST
Civil Twilight 6:47 AM EST 5:59 PM EST
Nautical Twilight 6:14 AM EST 6:32 PM EST
Astronomical Twilight 5:42 AM EST 7:04 PM EST
Moon 10:06 PM EST (11/4) 12:01 PM EST (11/4)
Length of Visible Light 11h 11m
Length of Day
10h 13m
Waning Gibbous, 72% of the Moon is Illuminated
Nov 4
Waning Gibbous
Nov 6
Last Quarter
Nov 13
New
Nov 20
First Quarter
Nov 28
Full

Hourly Weather History & Observations

Time (EST) Temp. Windchill Dew Point Humidity Pressure Visibility Wind Dir Wind Speed Gust Speed Precip Events Conditions
12:15 AM 32.0 °F - 28.4 °F 87% 30.17 in 10.0 mi Calm Calm - N/A   Mostly Cloudy
12:34 AM 30.0 °F - 27.1 °F 89% 30.17 in 10.0 mi Calm Calm - N/A   Scattered Clouds
12:54 AM 29.5 °F - 27.7 °F 93% 30.17 in 10.0 mi Calm Calm - N/A   Mostly Cloudy
1:15 AM 30.7 °F - 28.2 °F 90% 30.17 in 10.0 mi Calm Calm - N/A   Overcast
1:34 AM 31.1 °F - 29.1 °F 92% 30.18 in 10.0 mi Calm Calm - N/A   Overcast
1:54 AM 31.1 °F - 29.3 °F 93% 30.17 in 10.0 mi Calm Calm - N/A   Overcast
1:15 AM 31.1 °F - 28.2 °F 89% 30.17 in 10.0 mi Calm Calm - N/A   Overcast
1:34 AM 30.0 °F - 28.0 °F 92% 30.16 in 7.0 mi Calm Calm - N/A   Scattered Clouds
1:54 AM 29.7 °F - 27.9 °F 93% 30.16 in 7.0 mi Calm Calm - N/A   Scattered Clouds
2:15 AM 29.1 °F - 27.7 °F 94% 30.16 in 7.0 mi Calm Calm - N/A   Scattered Clouds
2:34 AM 29.1 °F - 27.5 °F 94% 30.16 in 7.0 mi Calm Calm - N/A   Scattered Clouds
2:55 AM 27.5 °F - 26.4 °F 96% 30.17 in 7.0 mi Calm Calm - N/A   Clear
3:15 AM 25.7 °F - 24.4 °F 95% 30.17 in 7.0 mi Calm Calm - N/A   Clear
3:34 AM 25.9 °F - 24.8 °F 96% 30.17 in 7.0 mi Calm Calm - N/A   Mostly Cloudy
3:55 AM 28.0 °F - 27.0 °F 96% 30.17 in 7.0 mi Calm Calm - N/A   Overcast
4:15 AM 28.9 °F - 27.5 °F 94% 30.17 in 7.0 mi Calm Calm - N/A   Overcast
4:34 AM 29.3 °F - 28.2 °F 96% 30.17 in 7.0 mi Calm Calm - N/A   Overcast
4:55 AM 30.2 °F - 28.9 °F 95% 30.18 in 7.0 mi Calm Calm - N/A   Overcast
5:14 AM 30.4 °F - 29.1 °F 95% 30.18 in 7.0 mi Calm Calm - N/A   Overcast
5:34 AM 31.1 °F - 29.7 °F 94% 30.18 in 7.0 mi Calm Calm - N/A   Overcast
5:55 AM 31.1 °F - 29.8 °F 95% 30.18 in 7.0 mi Calm Calm - N/A   Overcast
6:14 AM 31.8 °F - 30.2 °F 94% 30.18 in 7.0 mi Calm Calm - N/A   Overcast
6:34 AM 32.0 °F - 30.2 °F 93% 30.18 in 10.0 mi Calm Calm - N/A   Overcast
6:54 AM 32.0 °F - 29.7 °F 91% 30.18 in 10.0 mi Calm Calm - N/A   Overcast
7:14 AM 32.4 °F - 29.1 °F 88% 30.18 in 10.0 mi Calm Calm - N/A   Overcast
7:35 AM 33.1 °F - 28.6 °F 84% 30.19 in 10.0 mi Calm Calm - N/A   Overcast
7:54 AM 33.3 °F - 29.3 °F 85% 30.19 in 10.0 mi Calm Calm - N/A   Overcast
8:14 AM 33.8 °F - 29.1 °F 83% 30.19 in 10.0 mi Calm Calm - N/A   Overcast
8:35 AM 34.3 °F - 28.4 °F 79% 30.19 in 10.0 mi Calm Calm - N/A   Overcast
8:54 AM 34.7 °F 31.8 °F 28.8 °F 79% 30.19 in 10.0 mi North 3.5 mph - N/A   Overcast
9:14 AM 34.9 °F 29.0 °F 27.3 °F 74% 30.19 in 10.0 mi North 6.9 mph - N/A   Overcast
9:34 AM 34.9 °F 29.0 °F 27.1 °F 73% 30.19 in 10.0 mi North 6.9 mph - N/A   Overcast
9:54 AM 35.1 °F 30.1 °F 26.8 °F 72% 30.19 in 10.0 mi North 5.8 mph - N/A   Overcast
10:15 AM 35.2 °F 30.3 °F 26.2 °F 70% 30.18 in 10.0 mi NNE 5.8 mph - N/A   Overcast
10:34 AM 35.6 °F 29.9 °F 25.9 °F 68% 30.18 in 10.0 mi NNE 6.9 mph - N/A   Overcast
10:54 AM 36.5 °F 31.8 °F 27.0 °F 68% 30.18 in 10.0 mi North 5.8 mph - N/A   Overcast
11:15 AM 36.5 °F 32.7 °F 26.6 °F 67% 30.19 in 10.0 mi North 4.6 mph - N/A   Overcast
11:34 AM 36.7 °F 32.9 °F 26.2 °F 66% 30.19 in 10.0 mi North 4.6 mph - N/A   Overcast
11:55 AM 37.0 °F 33.3 °F 26.6 °F 66% 30.18 in 10.0 mi NNE 4.6 mph - N/A   Overcast
12:15 PM 37.4 °F - 26.1 °F 64% 30.18 in 10.0 mi Calm Calm - N/A   Overcast
12:34 PM 37.6 °F 35.1 °F 26.8 °F 65% 30.17 in 10.0 mi North 3.5 mph - N/A   Overcast
12:55 PM 37.4 °F 34.9 °F 26.1 °F 64% 30.17 in 10.0 mi North 3.5 mph - N/A   Overcast
1:14 PM 37.4 °F 33.8 °F 26.2 °F 64% 30.17 in 10.0 mi NNW 4.6 mph - N/A   Overcast
1:34 PM 37.8 °F 34.2 °F 26.1 °F 63% 30.16 in 10.0 mi North 4.6 mph - N/A   Overcast
1:55 PM 37.8 °F 32.5 °F 26.4 °F 64% 30.16 in 10.0 mi North 6.9 mph - N/A   Overcast
2:14 PM 37.8 °F 33.3 °F 26.4 °F 64% 30.16 in 10.0 mi North 5.8 mph - N/A   Overcast
2:34 PM 38.1 °F 32.9 °F 26.4 °F 63% 30.16 in 10.0 mi North 6.9 mph - N/A   Overcast
2:55 PM 37.8 °F 33.3 °F 26.2 °F 63% 30.16 in 10.0 mi North 5.8 mph - N/A   Mostly Cloudy
3:14 PM 38.3 °F 35.9 °F 26.1 °F 61% 30.16 in 10.0 mi NW 3.5 mph - N/A   Mostly Cloudy
3:34 PM 38.5 °F 36.1 °F 26.1 °F 61% 30.16 in 10.0 mi North 3.5 mph - N/A   Scattered Clouds
3:55 PM 38.5 °F 34.1 °F 25.9 °F 61% 30.16 in 10.0 mi NNW 5.8 mph - N/A   Scattered Clouds
4:14 PM 38.7 °F 35.2 °F 25.9 °F 60% 30.15 in 10.0 mi NNW 4.6 mph - N/A   Clear
4:35 PM 38.7 °F 35.2 °F 26.4 °F 61% 30.16 in 10.0 mi NE 4.6 mph - N/A   Clear
4:54 PM 37.6 °F 33.1 °F 27.0 °F 66% 30.15 in 10.0 mi NE 5.8 mph - N/A   Clear
5:15 PM 36.5 °F 31.8 °F 26.4 °F 67% 30.15 in 10.0 mi NNE 5.8 mph - N/A   Clear
5:34 PM 34.9 °F 29.0 °F 26.4 °F 71% 30.16 in 10.0 mi NE 6.9 mph - N/A   Clear
5:54 PM 33.6 °F 28.4 °F 26.2 °F 74% 30.16 in 10.0 mi NE 5.8 mph - N/A   Clear
6:15 PM 32.7 °F 27.3 °F 26.2 °F 77% 30.16 in 10.0 mi ENE 5.8 mph - N/A   Clear
6:34 PM 32.0 °F 26.4 °F 26.1 °F 79% 30.17 in 10.0 mi ENE 5.8 mph - N/A   Clear
6:55 PM 31.8 °F 27.3 °F 25.7 °F 78% 30.17 in 10.0 mi ENE 4.6 mph - N/A   Clear
7:14 PM 30.7 °F 27.3 °F 25.2 °F 80% 30.18 in 10.0 mi NE 3.5 mph - N/A   Clear
7:34 PM 30.7 °F 27.3 °F 24.8 °F 79% 30.18 in 5.0 mi NE 3.5 mph - N/A   Haze
7:54 PM 30.0 °F - 25.2 °F 82% 30.18 in 7.0 mi Calm Calm - N/A   Clear
8:14 PM 30.2 °F - 24.8 °F 80% 30.17 in 10.0 mi Calm Calm - N/A   Clear
8:35 PM 27.0 °F - 23.2 °F 86% 30.17 in 10.0 mi Calm Calm - N/A   Clear
8:54 PM 26.1 °F - 22.8 °F 88% 30.17 in 10.0 mi Calm Calm - N/A   Clear
9:15 PM 26.4 °F - 23.7 °F 90% 30.17 in 10.0 mi Calm Calm - N/A   Clear
9:35 PM 26.4 °F - 24.4 °F 92% 30.17 in 10.0 mi Calm Calm - N/A   Clear
9:54 PM 26.4 °F - 24.6 °F 93% 30.17 in 10.0 mi Calm Calm - N/A   Clear
10:15 PM 26.1 °F - 23.5 °F 90% 30.17 in 10.0 mi Calm Calm - N/A   Clear
10:34 PM 25.7 °F - 23.4 °F 91% 30.17 in 10.0 mi Calm Calm - N/A   Clear
10:55 PM 25.7 °F - 23.9 °F 93% 30.17 in 7.0 mi Calm Calm - N/A   Clear